User: anonymous   Login
Location: Unspecified
(0.0000°N, 0.0000°E)
Time: 20:07:31
(UTC+00:00)
Language:

SPROUT - Orbit

View from above orbital plane
View from above orbital plane
View from above satellite
View from above satellite

Ground track
Ground track

The orbit data is extracted from the following two-line orbital elements,

1 39770U 14029E   21056.53730218  .00001140  00000-0  12965-3 0  9997
2 39770  97.9047 168.0038 0008380 209.6192 150.4576 14.88199094366699
Epoch (UTC): 25 February 2021 12:53:42
Eccentricity: 0.0008380
inclination: 97.9047°
perigee height: 598 km
apogee height: 609 km
right ascension of ascending node: 168.0038°
argument of perigee: 209.6192°
revolutions per day: 14.88199094
mean anomaly at epoch: 150.4576°
orbit number at epoch: 36669

The dashed part of the orbit path shows where the satellite is in the earth's shadow,  

DLR